Location: Boullarre
(49.1305°N, 3.0047°E)
Time: 20:33:19
(UTC+00:00)

ISS - Pass Details

Date: 22 September 2024
Orbit: 411 x 423 km, 51.6° (Epoch: 14 October)

Event Time Altitude Azimuth Distance (km) Brightness Sun altitude
Rises 18:36:52 0° 279° (W) 2,365 2.5 -9.3°
Reaches altitude 10° 18:38:59 10° 284° (WNW) 1,504 0.7 -9.6°
Maximum altitude 18:42:19 54° 3° (N) 522 -3.2 -10.1°
Enters shadow 18:45:02 14° 79° (E) 1,269 -1.9 -10.6°
